Powrót do katalogu

STARLINK-2687

AktywnyŁącznośćVLEO
NORAD 48466·PAYLOAD·🇺🇸 United States

Wystrzelony May 9, 2021 z Cape Canaveral Space Force Station

Loading…

Następne Przeloty (najbliższe 24 godziny)

TLE

ŚwieżeSource: CelesTrak SupGP

Epoka: Sep 15, 2026, 02:47 UTC

1 48466C 21040AQ  26258.11645833  .00003754  00000+0  12068-3 0  2585
2 48466  53.1607  29.5614 0001027  79.6103   1.4779 15.31708423    18

Śledź STARLINK-2687 w czasie rzeczywistym z AllMySat

Download on the App Store